Wind_Speed
9 10 12 13 14 15 17 19 20 20 20 20 20 21 21 21 21 20 20 20 20 20 20 20 20 20 20 21 22 22 23 23 24 24 25 26 26 27 28 28 29 30 31
7 9 10 12 14 15 17 18 18 20 20 20 21 21 21 21 21 21 21 21 21 21 22 22 22 23 23 23 23 24 24 24 26 27 28 29 29 30 31 32 33 34 35
7 8 9 11 13 15 17 18 18 20 20 20 20 20 20 21 22 22 22 22 22 23 23 24 24 24 25 25 25 26 26 27 28 29 30 31 32 33 34 35 36 36 37
7 7 8 10 12 14 16 17 18 19 20 20 21 20 21 21 21 22 23 23 24 24 24 24 25 25 25 26 27 28 28 29 30 31 32 33 35 36 36 37 38 39 40
8 8 8 10 11 13 15 16 16 17 19 19 19 19 20 21 21 22 23 24 24 24 25 25 25 26 27 28 29 30 31 31 32 34 35 36 37 38 39 40 41 42 43
8 8 9 10 11 12 14 15 16 16 17 19 20 20 20 20 21 22 23 23 24 24 25 26 27 28 29 30 31 32 34 35 36 37 38 39 40 41 41 43 44 45 46
10 10 10 10 10 12 13 14 16 17 17 18 19 20 20 20 21 23 24 25 25 26 27 28 28 30 32 33 34 36 37 38 39 40 41 42 43 44 45 46 47 49 50
11 10 10 10 10 10 11 12 15 16 18 19 20 21 21 21 22 23 24 26 26 27 29 30 31 33 34 35 36 37 38 40 41 42 44 45 46 48 49 51 52 53 55
14 13 13 12 12 12 13 13 15 16 17 18 19 20 21 21 22 24 25 26 27 29 30 32 34 34 35 37 38 39 41 42 43 45 47 48 49 51 52 54 55 56 57
17 16 17 16 15 15 16 16 16 17 19 20 20 21 22 23 24 25 26 27 29 31 32 35 36 37 38 39 40 42 44 45 47 48 50 52 53 54 55 56 57 58 59
19 18 18 19 18 18 18 19 19 20 20 21 22 23 24 25 27 27 28 30 32 33 34 35 37 38 39 40 42 44 46 48 50 51 52 53 54 56 57 58 60 61 62
20 20 21 21 21 20 20 21 20 20 19 21 23 24 25 27 28 31 32 33 34 35 36 36 38 39 41 42 44 47 48 50 51 52 53 55 56 58 59 61 61 62 63
22 22 22 22 22 21 21 21 22 22 22 23 24 25 27 28 30 31 32 34 35 36 38 39 40 43 44 45 46 48 49 51 52 54 55 57 59 60 61 61 62 62 63
23 23 23 22 22 22 21 22 23 24 25 26 27 27 29 30 32 33 34 35 37 38 39 40 42 44 45 46 47 49 51 53 54 56 57 59 60 60 61 61 61 60 60
23 23 22 22 22 23 24 24 26 27 28 29 29 30 31 32 34 35 35 36 38 39 41 42 43 45 46 48 49 51 53 54 56 57 58 58 59 59 59 59 58 58 57
25 25 25 25 24 25 25 26 27 29 30 30 31 32 33 34 36 36 36 38 40 42 43 43 45 46 47 49 51 53 54 56 57 57 57 57 57 56 56 56 55 55 54
24 24 25 25 25 25 25 27 28 28 28 29 31 33 34 35 35 37 38 40 41 42 43 44 45 47 49 50 52 53 54 54 55 55 55 55 54 53 53 53 52 51 50
23 23 24 25 25 26 26 27 27 28 30 31 33 33 34 35 36 38 39 40 40 41 43 45 47 48 49 50 51 51 52 52 52 52 52 51 51 50 50 49 49 47 46
22 23 24 25 25 25 26 27 28 30 31 32 33 34 34 35 36 37 38 40 41 43 44 45 46 47 48 49 49 49 49 49 49 49 49 48 48 47 46 46 44 43 42
22 22 23 23 25 26 26 27 28 30 31 32 33 33 34 35 36 38 39 41 42 43 44 45 46 46 46 46 46 46 47 47 46 46 45 45 44 44 43 42 41 40 39
21 22 23 24 25 26 26 26 27 29 30 31 32 33 34 36 37 38 40 40 41 42 43 43 44 44 44 44 44 44 44 43 43 42 42 41 41 40 39 39 38 38 37
20 21 22 22 23 24 25 26 28 29 30 31 33 34 35 36 37 38 39 40 41 41 41 41 41 42 42 42 41 41 40 40 39 39 39 38 38 37 37 36 36 36 35
19 20 21 22 23 25 26 28 28 29 31 32 33 34 35 35 36 37 38 38 39 39 39 39 40 39 39 38 37 37 37 37 37 37 37 37 36 35 35 35 34 34 33
19 20 21 22 23 25 26 27 28 29 30 31 32 33 33 34 35 35 36 36 36 37 37 36 36 36 35 35 35 35 35 35 35 35 35 35 34 34 34 33 33 32 31
20 21 22 23 25 26 27 27 28 29 30 30 31 32 32 33 33 34 34 34 34 34 34 34 33 33 32 33 33 33 33 33 33 33 33 33 33 32 32 32 31 30 30
20 21 23 24 24 25 26 27 28 28 29 30 30 31 31 32 32 32 32 32 32 32 32 31 31 31 31 31 31 31 32 32 32 31 31 31 31 31 31 31 30 30 29
Wind_Direction
245 239 237 233 226 223 220 218 219 220 224 227 227 228 230 232 235 239 242 244 245 248 250 252 255 258 261 264 266 267 269 271 273 276 278 279 280 281 281 281 282 282 282
253 248 246 237 230 229 226 222 221 223 226 230 231 232 233 234 237 240 243 246 249 252 254 255 258 261 263 265 267 269 271 272 274 275 277 279 279 279 280 281 282 282 282
265 257 251 239 231 229 227 226 226 228 229 232 234 235 236 237 239 242 246 250 254 256 258 259 261 264 266 267 269 270 271 273 275 276 277 279 279 280 280 281 281 281 281
270 262 251 240 233 231 227 227 229 230 233 236 239 242 243 242 243 246 249 253 256 258 260 263 264 266 267 269 271 272 273 275 276 277 277 279 281 281 281 281 282 282 282
273 262 251 243 238 234 231 230 230 233 236 238 241 243 245 246 247 251 253 255 258 260 262 264 266 268 270 272 273 274 276 278 278 279 279 281 282 282 281 281 282 283 283
276 264 254 254 240 235 233 233 235 237 239 241 241 244 248 251 252 255 258 260 262 262 264 266 268 269 271 273 275 277 279 280 281 281 281 282 283 283 283 283 283 283 283
279 263 255 256 253 246 244 242 241 241 243 246 245 247 250 253 255 258 259 263 263 265 267 268 268 270 272 275 277 279 281 282 282 283 283 284 285 285 285 285 285 285 284
278 268 257 256 257 253 247 245 245 247 250 252 251 249 252 255 256 259 261 263 264 268 270 270 271 273 275 278 279 281 282 283 283 284 284 285 286 286 286 286 286 286 286
270 265 258 256 254 254 251 250 250 252 254 251 250 248 253 258 262 264 267 267 269 273 275 275 275 276 278 279 280 281 282 283 284 285 285 286 287 287 287 288 288 288 287
266 264 258 254 253 252 251 252 254 255 257 253 254 254 256 260 263 267 271 271 273 276 278 279 279 280 280 280 281 283 284 284 285 286 287 288 288 289 289 289 289 289 289
261 259 256 255 254 256 254 256 257 257 258 256 257 260 260 261 265 270 273 274 275 277 279 281 281 281 281 283 284 286 286 287 287 288 289 290 290 290 290 290 289 289 290
261 257 256 257 256 260 256 257 258 258 259 260 261 264 267 268 270 273 274 275 277 280 281 282 283 283 284 285 286 287 287 287 289 289 289 289 290 290 291 291 291 291 291
257 256 254 256 255 257 257 258 260 260 262 266 267 268 271 272 275 278 279 279 280 281 282 284 285 285 285 286 288 289 289 290 291 291 290 291 291 292 292 292 293 293 293
254 255 253 253 255 259 261 263 265 267 269 269 269 270 274 276 277 279 280 282 283 282 283 284 286 287 288 289 290 291 291 292 292 292 292 293 293 294 294 294 295 295 295
253 253 251 253 257 260 265 268 267 267 269 270 271 273 276 278 279 279 280 280 282 284 285 286 287 288 289 291 291 292 293 293 294 294 295 295 296 296 296 296 296 296 296
253 252 255 258 261 262 264 266 268 268 269 273 273 277 279 280 280 280 281 282 284 286 288 289 290 291 292 293 294 295 295 296 297 297 297 297 297 297 298 298 298 298 297
252 254 258 260 263 267 266 265 268 269 271 273 276 278 280 281 281 282 284 286 288 291 292 292 293 294 295 296 297 298 298 298 298 299 299 299 299 299 299 299 299 299 299
254 256 259 261 264 266 267 268 269 273 276 275 276 278 281 281 281 283 286 289 292 293 294 295 296 297 298 299 299 300 300 300 301 301 302 301 301 301 301 301 301 300 300
257 260 261 261 265 266 265 268 270 274 276 277 279 280 281 283 287 289 291 293 294 295 297 298 299 300 301 302 303 303 303 304 304 304 304 304 304 304 304 304 304 303 302
259 260 262 262 264 266 268 270 273 275 276 279 282 284 285 287 290 291 293 295 297 298 300 301 302 303 304 305 306 307 307 307 308 308 307 307 307 307 306 306 305 305 304
260 262 262 264 268 269 271 274 277 280 282 284 286 288 290 292 293 295 297 299 300 302 303 304 305 306 307 308 309 309 310 310 310 310 311 310 310 310 309 309 308 307 306
263 262 263 267 271 275 279 282 284 285 286 288 290 293 295 297 298 299 301 303 304 305 306 307 308 309 310 311 311 312 313 313 314 314 314 314 313 313 312 312 312 311 309
264 266 269 273 278 281 283 285 286 288 290 292 294 296 298 300 302 303 305 306 307 308 309 310 311 312 312 313 314 315 316 316 316 316 316 316 315 315 315 315 314 314 313
272 274 278 280 282 284 286 289 291 293 295 297 299 301 302 303 304 305 307 308 309 310 311 312 313 314 314 315 316 317 318 319 319 319 318 318 318 317 318 318 317 316 316
278 278 282 285 287 289 291 293 295 298 300 302 303 305 305 306 306 306 307 308 310 311 313 314 315 316 317 318 319 320 321 322 322 322 322 323 323 322 321 321 321 320 319
283 286 289 291 293 295 297 299 300 302 304 305 307 307 307 307 308 308 309 310 312 314 315 316 317 318 320 321 323 324 325 325 326 326 327 327 327 326 325 325 324 323 322
Height
5823 5824 5824 5825 5826 5828 5830 5832 5835 5837 5840 5843 5845 5848 5851 5853 5855 5857 5859 5860 5861 5863 5863 5864 5865 5865 5866 5866 5866 5865 5865 5865 5864 5864 5863 5862 5861 5860 5859 5857 5856 5855 5853
5822 5822 5822 5823 5824 5825 5827 5829 5832 5834 5837 5839 5842 5844 5847 5849 5851 5853 5854 5856 5857 5858 5859 5859 5860 5860 5860 5860 5860 5860 5859 5859 5858 5857 5856 5855 5854 5853 5851 5850 5848 5846 5845
5820 5820 5821 5821 5822 5823 5824 5827 5829 5831 5834 5836 5838 5840 5842 5845 5846 5848 5850 5851 5852 5852 5853 5854 5854 5854 5854 5854 5854 5854 5853 5852 5851 5850 5849 5847 5846 5845 5843 5841 5839 5837 5835
5818 5818 5819 5819 5820 5820 5821 5824 5826 5828 5830 5833 5835 5837 5838 5840 5842 5843 5845 5846 5846 5847 5847 5848 5848 5848 5848 5847 5847 5846 5845 5844 5843 5842 5841 5839 5838 5836 5834 5832 5830 5827 5825
5817 5816 5817 5817 5817 5818 5819 5821 5823 5825 5827 5829 5831 5833 5834 5836 5837 5838 5839 5840 5840 5841 5841 5841 5841 5841 5841 5840 5839 5838 5837 5836 5835 5833 5832 5830 5828 5826 5824 5822 5819 5817 5814
5815 5815 5815 5815 5815 5815 5817 5818 5820 5822 5824 5825 5827 5829 5830 5831 5832 5833 5833 5834 5834 5834 5835 5834 5834 5834 5833 5832 5831 5830 5829 5827 5826 5824 5821 5819 5817 5815 5812 5810 5808 5805 5802
5813 5813 5813 5813 5813 5814 5815 5816 5817 5818 5820 5821 5822 5824 5825 5826 5826 5827 5827 5827 5827 5828 5827 5827 5827 5826 5825 5824 5823 5821 5819 5817 5815 5813 5811 5808 5806 5803 5800 5797 5794 5791 5788
5810 5810 5810 5810 5810 5811 5812 5813 5814 5815 5816 5816 5817 5819 5819 5820 5820 5821 5821 5821 5821 5821 5820 5820 5819 5818 5816 5815 5813 5811 5809 5807 5805 5802 5799 5796 5793 5790 5787 5784 5781 5777 5773
5806 5806 5807 5807 5807 5808 5808 5809 5810 5811 5811 5811 5812 5813 5814 5815 5815 5815 5815 5814 5814 5814 5813 5811 5810 5809 5807 5805 5803 5801 5798 5796 5793 5790 5787 5783 5780 5776 5773 5769 5766 5762 5758
5802 5802 5802 5802 5803 5803 5804 5804 5805 5806 5806 5806 5807 5808 5808 5809 5809 5809 5808 5807 5807 5806 5804 5802 5801 5799 5797 5795 5792 5790 5787 5784 5781 5777 5773 5770 5766 5762 5758 5753 5749 5745 5740
5797 5797 5797 5797 5797 5798 5798 5799 5800 5801 5801 5801 5801 5802 5802 5802 5802 5801 5801 5800 5799 5797 5795 5794 5792 5789 5787 5784 5781 5778 5775 5771 5767 5764 5760 5755 5751 5746 5742 5737 5732 5727 5723
5791 5791 5792 5792 5792 5792 5792 5794 5794 5795 5795 5795 5795 5795 5795 5795 5794 5793 5792 5791 5790 5788 5786 5784 5781 5779 5776 5773 5769 5766 5762 5758 5754 5750 5745 5741 5736 5731 5726 5720 5715 5709 5704
5784 5785 5785 5786 5786 5786 5786 5787 5788 5789 5789 5789 5789 5788 5788 5787 5786 5785 5783 5781 5780 5778 5776 5773 5770 5767 5764 5761 5757 5753 5749 5745 5740 5736 5731 5726 5720 5715 5709 5703 5697 5691 5685
5777 5778 5779 5779 5780 5781 5781 5781 5782 5782 5782 5782 5781 5781 5780 5779 5777 5776 5774 5772 5770 5768 5765 5762 5759 5755 5752 5748 5744 5740 5735 5731 5726 5721 5715 5710 5704 5698 5693 5687 5681 5674 5668
5770 5771 5772 5773 5773 5774 5774 5774 5774 5774 5774 5774 5773 5772 5771 5770 5769 5767 5764 5762 5760 5757 5754 5751 5747 5744 5740 5735 5731 5726 5721 5716 5711 5705 5699 5694 5687 5681 5675 5669 5664 5658 5652
5764 5764 5765 5766 5766 5766 5767 5767 5766 5766 5766 5766 5765 5764 5763 5761 5759 5756 5754 5752 5749 5746 5743 5739 5735 5731 5727 5722 5717 5712 5706 5701 5695 5689 5683 5677 5671 5665 5659 5653 5647 5642 5636
5757 5758 5758 5759 5759 5760 5760 5760 5760 5759 5758 5757 5757 5755 5754 5751 5749 5747 5744 5741 5738 5734 5731 5727 5723 5718 5713 5708 5703 5697 5692 5686 5680 5674 5668 5662 5655 5649 5644 5638 5632 5626 5621
5750 5751 5752 5752 5753 5753 5753 5753 5752 5751 5751 5749 5748 5746 5744 5742 5739 5737 5734 5730 5727 5723 5719 5715 5710 5705 5700 5694 5689 5683 5677 5671 5665 5658 5652 5646 5641 5635 5629 5623 5618 5612 5607
5743 5744 5745 5745 5745 5745 5745 5744 5744 5743 5742 5741 5739 5737 5734 5732 5729 5726 5723 5720 5716 5712 5708 5703 5698 5692 5687 5681 5675 5669 5663 5657 5651 5645 5639 5632 5627 5621 5615 5610 5604 5599 5594
5737 5738 5738 5738 5738 5738 5737 5737 5736 5735 5733 5732 5730 5728 5725 5723 5719 5716 5713 5709 5705 5700 5695 5690 5685 5679 5674 5668 5662 5656 5650 5644 5638 5632 5626 5620 5614 5608 5603 5597 5592 5587 5582
5731 5731 5732 5732 5732 5731 5730 5730 5728 5727 5725 5723 5721 5718 5716 5713 5709 5706 5702 5698 5693 5688 5683 5678 5672 5667 5661 5656 5650 5644 5638 5632 5626 5620 5614 5608 5603 5597 5592 5586 5581 5576 5571
5725 5725 5725 5725 5725 5724 5723 5722 5720 5719 5717 5715 5712 5709 5706 5702 5699 5695 5691 5686 5682 5677 5672 5667 5661 5656 5651 5645 5639 5634 5628 5622 5616 5610 5604 5598 5593 5587 5582 5576 5571 5566 5561
5719 5719 5719 5719 5718 5717 5716 5714 5712 5710 5708 5705 5702 5699 5696 5692 5688 5684 5680 5676 5671 5666 5661 5656 5651 5646 5640 5635 5630 5624 5619 5613 5607 5601 5596 5590 5584 5578 5573 5568 5562 5557 5552
5714 5714 5713 5712 5711 5710 5708 5706 5704 5702 5699 5696 5693 5690 5686 5683 5679 5675 5670 5666 5661 5657 5652 5647 5642 5637 5632 5626 5621 5616 5610 5605 5599 5593 5588 5582 5576 5571 5565 5560 5555 5550 5545
5709 5708 5707 5705 5704 5702 5700 5698 5696 5693 5690 5688 5684 5681 5677 5674 5670 5666 5661 5657 5652 5648 5643 5638 5633 5629 5624 5618 5613 5608 5603 5597 5592 5586 5580 5575 5569 5564 5558 5553 5548 5543 5538
5703 5701 5700 5698 5697 5695 5692 5690 5688 5685 5682 5679 5676 5672 5669 5665 5661 5657 5653 5648 5644 5640 5635 5631 5626 5621 5616 5611 5606 5601 5596 5591 5585 5580 5574 5569 5563 5558 5552 5547 5541 5536 5532